Regional Weather Roundup
Issued by NWS

Home | Current Version | Previous Version | Graphics & Text | Print | Product List | Glossary On
Versions: 1 2 3 4 5 6 7 8 9 10 11 12 13 14 15 16 17 18 19 20 21 22 23 24 25 26 27 28 29 30 31 32 33 34 35 36 37 38 39 40 41 42 43 44 45 46 47 48 49 50
000
ASUS45 KBOU 240607
RWRCO

WEATHER ROUNDUP FOR COLORADO
NATIONAL WEATHER SERVICE DENVER/BOULDER CO
1200 AM MDT FRI APR 24 2015

NOTE: "FAIR" INDICATES FEW OR NO CLOUDS BELOW 12000 FEET WITH NO
SIGNIFICANT WEATHER AND/OR OBSTRUCTIONS TO VISIBILITY.

COZ001>005-013-030-031-240700-
...NORTHWEST COLORADO...

CITY           SKY/WX    TMP DP  RH WIND       PRES   REMARKS
CRAIG          PTCLDY    40  32  73 E3        29.86F
HAYDEN         PTCLDY    39  30  70 E6        29.87F
MEEKER         PTCLDY    42  31  64 NE5       29.85F
MOUNT WERNER   NOT AVBL
STEAMBOAT SPGS PTCLDY    42  32  68 E3        29.88F
WALDEN         PTCLDY    36  28  75 S12G17    29.90S
$$

COZ006>008-011-240700-
...WEST CENTRAL VALLEYS...

CITY           SKY/WX    TMP DP  RH WIND       PRES   REMARKS
GRAND JUNCTION CLEAR     51  31  46 E12       29.79S
MONTROSE       PTCLDY    44  29  55 SE10      29.87F
EAGLE          CLEAR     43  30  61 E7        29.91S
RIFLE          CLEAR     48  30  49 SE13      29.84S
DELTA          NOT AVBL
NUCLA          PTCLDY    45  27  49 E9        29.90S
$$

COZ017>023-064>068-240700-
...SOUTHWEST COLORADO...

CITY           SKY/WX    TMP DP  RH WIND       PRES   REMARKS
DURANGO        CLOUDY    49  26  41 CALM      29.93S
CORTEZ         MOCLDY    46  28  49 N6        29.89S
PAGOSA SPRINGS CLOUDY    44  28  52 SW7       29.99R
TELLURIDE      CLOUDY    41  20  43 CALM      29.99S
WOLF CREEK PAS MOCLDY    27  21  80 SW21      30.10S WCI  13
$$

COZ009-010-012-014-032>034-037-058>063-240700-
...CENTRAL COLORADO...

CITY           SKY/WX    TMP DP  RH WIND       PRES   REMARKS
ASPEN          PTCLDY    37  25  61 SW5       29.92S
BUENA VISTA    MOCLDY    37  29  75 NW3       29.93F
COPPER MTN     NOT AVBL
BERTHOUD PASS  HAZE      21  12  68 NW22      30.03F VSB<1/4 WCI   5
COTTONWOOD PAS MOCLDY    37  19  48 NW3       29.98F
GUNNISON       PTCLDY    36  25  64 CALM      29.99R
KREMMLING      PTCLDY    37  30  75 CALM      29.92F
LEADVILLE      PTCLDY    27  21  78 VRB3      29.97F
SALIDA         MOCLDY    42  30  62 CALM      30.00R
SUNLIGHT       CLEAR     32  27  80 CALM      30.03F
WILKERSON PASS PTCLDY    30  19  64 W8G18     30.03F WCI  23
$$

COZ069>075-240700-
...SAN LUIS VALLEY/SANGRE DE CRISTO MOUNTAINS...

CITY           SKY/WX    TMP DP  RH WIND       PRES   REMARKS
ALAMOSA        CLOUDY    43  20  39 CALM      29.93R
LA VETA PASS   PTCLDY    34  21  60 S6        30.01S WCI  29
SAGUACHE       CLOUDY    41  25  52 N7        29.95F
$$

COZ035-036-038>040-240700-
...NORTHERN COLORADO FRONT RANGE...

CITY           SKY/WX    TMP DP  RH WIND       PRES   REMARKS
DENVER INTL AP MOCLDY    48  33  56 W8        29.79R
DMNS CITY PARK   N/A     49  33  54 S1        29.79S
AURORA         PTCLDY    47  32  54 SW7       29.80S
FRONT RANGE AP PTCLDY    50  34  53 SW9       29.80F
ERIE MUNI ARPT MOCLDY    54  32  43 NW7       29.78F
BOULDER MUN AP CLOUDY    55  30  38 NW7       29.78S
CENTENNIAL     PTCLDY    45  32  60 SW7       29.81S
BROOMFIELD     MOCLDY    54  28  37 W5        29.81R
FORT COLLINS   CLOUDY    55  34  44 W8G16     29.80R
LONGMONT       CLOUDY    58  33  38 NW12G17   29.79S
$$

COZ041-046-047-076>085-087-088-240700-
...PIKES PEAK/PALMER DIVIDE AND SOUTHERN FOOTHILLS...

CITY           SKY/WX    TMP DP  RH WIND       PRES   REMARKS
COLO. SPRINGS  MOCLDY    43  31  62 N10       29.84S
A. F. ACADEMY  PTCLDY    41  28  59 N8        29.84S
ELLICOTT       PTCLDY   N/A N/A N/A CALM      29.82F
FALCON         PTCLDY    42  28  58 NW9       29.87F
FORT CARSON    PTCLDY    43  31  61 N7        29.82S
LIMON          PTCLDY    39  37  92 CALM      29.80S
MONUMENT HILL  PTCLDY    43  27  52 SW6       29.85F
TRINIDAD       CLEAR     44  28  53 W6        29.83R
$$

COZ042>045-048>051-090-091-240700-
...NORTHEAST COLORADO...

CITY           SKY/WX    TMP DP  RH WIND       PRES   REMARKS
GREELEY ARPT   MOCLDY    54  37  54 NE8       29.76F
AKRON          CLOUDY    52  48  86 SE16      29.75F
BURLINGTON     MOCLDY    52  46  80 S12       29.76F
WRAY           CLOUDY    56  51  83 E14G23    29.75F
STERLING       CLOUDY    48  41  76 SW5       29.73F
HOLYOKE        CLOUDY    54  46  76 SE13      29.76S
FORT MORGAN    CLOUDY    51  39  63 SE7       29.75S
$$

COZ086-089-092>099-240700-
...SOUTHEAST COLORADO...

CITY           SKY/WX    TMP DP  RH WIND       PRES   REMARKS
PUEBLO         CLEAR     47  38  71 SE6       29.78S
LA JUNTA       CLEAR     53  48  83 NE13      29.72F
LAMAR          PTCLDY    53  50  89 N7        29.71R
SPRINGFIELD      N/A     57  31  37 SW15G24   29.74F
$$



USA.gov is the U.S. government's official web portal to all federal, state and local government web resources and services.